Time,TemperatureF,DewpointF,PressureIn,WindDirection,WindDirectionDegrees,WindSpeedMPH,WindSpeedGustMPH,Humidity,HourlyPrecipIn,Conditions,Clouds,dailyrainin,SolarRadiationWatts/m^2,SoftwareType,DateUTC
2013-03-26 00:05:00,56.0,40.0,30.01,WSW,254,0.0,4.0,55,0.00,,,0.00,0,weatherlink.com 1.10,2013-03-26 04:05:00,
2013-03-26 00:20:00,56.2,40.0,30.01,North,360,0.0,11.0,55,0.00,,,0.00,0,weatherlink.com 1.10,2013-03-26 04:20:00,
2013-03-26 00:35:00,56.3,40.0,30.01,West,275,0.0,7.0,55,0.00,,,0.00,0,weatherlink.com 1.10,2013-03-26 04:35:00,
2013-03-26 00:50:00,56.4,41.0,30.01,North,355,1.0,5.0,56,0.00,,,0.00,0,weatherlink.com 1.10,2013-03-26 04:50:00,
2013-03-26 01:05:00,56.6,41.0,30.02,South,182,0.0,4.0,57,0.00,,,0.00,0,weatherlink.com 1.10,2013-03-26 05:05:00,
2013-03-26 01:20:00,56.6,42.0,30.02,West,274,4.0,8.0,59,0.00,,,0.00,0,weatherlink.com 1.10,2013-03-26 05:20:00,
2013-03-26 01:35:00,56.6,43.0,30.02,North,360,1.0,6.0,60,0.00,,,0.00,0,weatherlink.com 1.10,2013-03-26 05:35:00,
2013-03-26 01:50:00,56.7,42.0,30.02,NNE,32,3.0,7.0,58,0.00,,,0.00,0,weatherlink.com 1.10,2013-03-26 05:50:00,
2013-03-26 02:05:00,56.6,40.0,30.02,NNE,13,1.0,12.0,55,0.00,,,0.00,0,weatherlink.com 1.10,2013-03-26 06:05:00,
2013-03-26 02:20:00,56.5,38.0,30.02,NNW,347,0.0,6.0,51,0.00,,,0.00,0,weatherlink.com 1.10,2013-03-26 06:20:00,
2013-03-26 02:35:00,56.2,34.0,30.03,North,360,1.0,10.0,44,0.00,,,0.00,0,weatherlink.com 1.10,2013-03-26 06:35:00,
2013-03-26 02:50:00,56.1,30.0,30.02,NNE,19,0.0,11.0,37,0.00,,,0.00,0,weatherlink.com 1.10,2013-03-26 06:50:00,
2013-03-26 03:05:00,55.9,29.0,30.02,NNE,18,4.0,9.0,36,0.00,,,0.00,0,weatherlink.com 1.10,2013-03-26 07:05:00,
2013-03-26 03:20:00,55.5,29.0,30.03,NW,309,7.0,8.0,37,0.00,,,0.00,0,weatherlink.com 1.10,2013-03-26 07:20:00,
2013-03-26 03:35:00,55.1,29.0,30.02,NNE,13,3.0,8.0,37,0.00,,,0.00,0,weatherlink.com 1.10,2013-03-26 07:35:00,
2013-03-26 03:50:00,54.6,27.0,30.02,ENE,57,5.0,11.0,35,0.00,,,0.00,0,weatherlink.com 1.10,2013-03-26 07:50:00,
2013-03-26 04:05:00,54.1,26.0,30.02,North,355,0.0,12.0,34,0.00,,,0.00,0,weatherlink.com 1.10,2013-03-26 08:05:00,
2013-03-26 04:20:00,53.5,26.0,30.04,NE,37,2.0,13.0,35,0.00,,,0.00,0,weatherlink.com 1.10,2013-03-26 08:20:00,
2013-03-26 04:35:00,52.9,26.0,30.04,NNE,13,6.0,12.0,36,0.00,,,0.00,0,weatherlink.com 1.10,2013-03-26 08:35:00,
2013-03-26 04:50:00,52.2,25.0,30.04,North,360,5.0,9.0,35,0.00,,,0.00,0,weatherlink.com 1.10,2013-03-26 08:50:00,
2013-03-26 05:05:00,51.2,24.0,30.05,North,360,8.0,11.0,35,0.00,,,0.00,0,weatherlink.com 1.10,2013-03-26 09:05:00,
2013-03-26 05:20:00,50.6,24.0,30.05,ENE,68,1.0,9.0,35,0.00,,,0.00,0,weatherlink.com 1.10,2013-03-26 09:20:00,
2013-03-26 05:35:00,50.1,23.0,30.05,NE,38,0.0,10.0,35,0.00,,,0.00,0,weatherlink.com 1.10,2013-03-26 09:35:00,
2013-03-26 05:50:00,49.7,24.0,30.05,NNE,23,2.0,10.0,37,0.00,,,0.00,0,weatherlink.com 1.10,2013-03-26 09:50:00,
2013-03-26 06:05:00,49.2,24.0,30.06,North,355,3.0,11.0,38,0.00,,,0.00,0,weatherlink.com 1.10,2013-03-26 10:05:00,
2013-03-26 06:21:00,48.9,25.0,30.07,North,355,2.0,10.0,39,0.00,,,0.00,0,weatherlink.com 1.10,2013-03-26 10:21:00,
2013-03-26 06:36:00,48.6,25.0,30.07,NNE,23,2.0,11.0,40,0.00,,,0.00,0,weatherlink.com 1.10,2013-03-26 10:36:00,
2013-03-26 06:51:00,48.3,25.0,30.07,NE,42,5.0,10.0,41,0.00,,,0.00,0,weatherlink.com 1.10,2013-03-26 10:51:00,
2013-03-26 07:06:00,48.0,26.0,30.08,North,9,0.0,8.0,43,0.00,,,0.00,0,weatherlink.com 1.10,2013-03-26 11:06:00,
2013-03-26 07:21:00,47.6,26.0,30.08,WSW,248,2.0,10.0,43,0.00,,,0.00,0,weatherlink.com 1.10,2013-03-26 11:21:00,
2013-03-26 08:06:00,47.2,28.0,30.10,NNW,344,3.0,7.0,47,0.00,,,0.00,47,weatherlink.com 1.10,2013-03-26 12:06:00,
2013-03-26 08:21:00,47.3,28.0,30.10,NNE,24,1.0,8.0,48,0.00,,,0.00,121,weatherlink.com 1.10,2013-03-26 12:21:00,
2013-03-26 08:37:00,47.7,29.0,30.11,NNW,336,2.0,6.0,48,0.00,,,0.00,176,weatherlink.com 1.10,2013-03-26 12:37:00,
2013-03-26 08:51:00,47.9,28.0,30.12,NNE,26,5.0,9.0,47,0.00,,,0.00,230,weatherlink.com 1.10,2013-03-26 12:51:00,
2013-03-26 09:06:00,48.3,29.0,30.13,NNW,341,0.0,12.0,48,0.00,,,0.00,292,weatherlink.com 1.10,2013-03-26 13:06:00,
2013-03-26 09:21:00,49.0,30.0,30.13,NNE,22,6.0,10.0,48,0.00,,,0.00,352,weatherlink.com 1.10,2013-03-26 13:21:00,
2013-03-26 09:36:00,49.2,29.0,30.13,NNW,340,1.0,12.0,45,0.00,,,0.00,417,weatherlink.com 1.10,2013-03-26 13:36:00,
2013-03-26 10:06:00,50.2,29.0,30.13,SSW,199,4.0,10.0,45,0.00,,,0.00,527,weatherlink.com 1.10,2013-03-26 14:06:00,
2013-03-26 10:22:00,50.5,28.0,30.14,NNW,342,8.0,8.0,42,0.00,,,0.00,584,weatherlink.com 1.10,2013-03-26 14:22:00,
2013-03-26 10:37:00,51.2,28.0,30.14,WNW,286,3.0,8.0,41,0.00,,,0.00,631,weatherlink.com 1.10,2013-03-26 14:37:00,
2013-03-26 10:52:00,52.5,29.0,30.14,North,10,2.0,10.0,41,0.00,,,0.00,689,weatherlink.com 1.10,2013-03-26 14:52:00,
2013-03-26 11:07:00,52.5,28.0,30.14,NW,320,5.0,11.0,39,0.00,,,0.00,742,weatherlink.com 1.10,2013-03-26 15:07:00,
2013-03-26 11:22:00,52.3,28.0,30.14,WSW,250,5.0,11.0,40,0.00,,,0.00,784,weatherlink.com 1.10,2013-03-26 15:22:00,
2013-03-26 11:37:00,53.3,29.0,30.14,WSW,249,2.0,11.0,39,0.00,,,0.00,819,weatherlink.com 1.10,2013-03-26 15:37:00,
2013-03-26 11:52:00,53.6,27.0,30.14,West,261,7.0,13.0,36,0.00,,,0.00,856,weatherlink.com 1.10,2013-03-26 15:52:00,
2013-03-26 12:07:00,53.7,28.0,30.14,NNW,334,5.0,12.0,38,0.00,,,0.00,881,weatherlink.com 1.10,2013-03-26 16:07:00,
2013-03-26 12:22:00,54.7,28.0,30.13,West,274,3.0,11.0,36,0.00,,,0.00,909,weatherlink.com 1.10,2013-03-26 16:22:00,
2013-03-26 12:37:00,55.3,31.0,30.13,WNW,289,4.0,10.0,39,0.00,,,0.00,930,weatherlink.com 1.10,2013-03-26 16:37:00,
2013-03-26 12:52:00,56.1,29.0,30.13,North,5,1.0,15.0,36,0.00,,,0.00,949,weatherlink.com 1.10,2013-03-26 16:52:00,
2013-03-26 13:07:00,56.7,30.0,30.12,West,265,2.0,10.0,36,0.00,,,0.00,963,weatherlink.com 1.10,2013-03-26 17:07:00,
2013-03-26 13:22:00,56.4,26.0,30.12,NE,36,4.0,11.0,31,0.00,,,0.00,970,weatherlink.com 1.10,2013-03-26 17:22:00,
2013-03-26 13:37:00,57.7,25.0,30.12,NNE,21,2.0,13.0,28,0.00,,,0.00,979,weatherlink.com 1.10,2013-03-26 17:37:00,
2013-03-26 13:52:00,57.9,26.0,30.12,West,273,5.0,15.0,30,0.00,,,0.00,972,weatherlink.com 1.10,2013-03-26 17:52:00,
2013-03-26 14:07:00,59.0,27.0,30.11,WNW,301,4.0,16.0,29,0.00,,,0.00,972,weatherlink.com 1.10,2013-03-26 18:07:00,
2013-03-26 14:22:00,58.0,27.0,30.11,West,280,2.0,9.0,30,0.00,,,0.00,953,weatherlink.com 1.10,2013-03-26 18:22:00,
2013-03-26 14:37:00,59.0,27.0,30.10,WSW,257,5.0,10.0,30,0.00,,,0.00,940,weatherlink.com 1.10,2013-03-26 18:37:00,
2013-03-26 14:52:00,59.0,27.0,30.10,SW,221,0.0,12.0,29,0.00,,,0.00,918,weatherlink.com 1.10,2013-03-26 18:52:00,
2013-03-26 15:07:00,59.0,24.0,30.09,West,280,7.0,27.0,26,0.00,,,0.00,891,weatherlink.com 1.10,2013-03-26 19:07:00,
2013-03-26 15:22:00,59.6,25.0,30.09,WNW,296,6.0,15.0,27,0.00,,,0.00,867,weatherlink.com 1.10,2013-03-26 19:22:00,
2013-03-26 15:37:00,59.0,26.0,30.09,NW,324,1.0,18.0,28,0.00,,,0.00,840,weatherlink.com 1.10,2013-03-26 19:37:00,
2013-03-26 15:52:00,59.0,24.0,30.08,WNW,288,8.0,16.0,26,0.00,,,0.00,802,weatherlink.com 1.10,2013-03-26 19:52:00,
2013-03-26 16:07:00,60.0,27.0,30.08,NW,308,5.0,13.0,28,0.00,,,0.00,758,weatherlink.com 1.10,2013-03-26 20:07:00,
2013-03-26 16:22:00,59.2,25.0,30.08,WSW,251,8.0,16.0,27,0.00,,,0.00,712,weatherlink.com 1.10,2013-03-26 20:22:00,
2013-03-26 16:37:00,59.1,26.0,30.09,WNW,302,7.0,18.0,28,0.00,,,0.00,663,weatherlink.com 1.10,2013-03-26 20:37:00,
2013-03-26 16:52:00,59.7,25.0,30.08,WSW,254,6.0,14.0,26,0.00,,,0.00,619,weatherlink.com 1.10,2013-03-26 20:52:00,
2013-03-26 17:07:00,59.0,24.0,30.08,West,268,9.0,16.0,26,0.00,,,0.00,564,weatherlink.com 1.10,2013-03-26 21:07:00,
2013-03-26 17:22:00,58.8,26.0,30.09,WNW,287,4.0,12.0,28,0.00,,,0.00,510,weatherlink.com 1.10,2013-03-26 21:22:00,
2013-03-26 17:37:00,59.0,26.0,30.09,WNW,293,4.0,11.0,28,0.00,,,0.00,448,weatherlink.com 1.10,2013-03-26 21:37:00,
2013-03-26 17:52:00,58.7,26.0,30.09,West,267,1.0,12.0,29,0.00,,,0.00,385,weatherlink.com 1.10,2013-03-26 21:52:00,
2013-03-26 18:07:00,59.0,28.0,30.09,WNW,292,5.0,11.0,31,0.00,,,0.00,325,weatherlink.com 1.10,2013-03-26 22:07:00,
2013-03-26 18:22:00,58.4,30.0,30.10,SW,232,4.0,9.0,34,0.00,,,0.00,264,weatherlink.com 1.10,2013-03-26 22:22:00,
2013-03-26 18:37:00,57.4,29.0,30.10,SW,221,2.0,9.0,34,0.00,,,0.00,204,weatherlink.com 1.10,2013-03-26 22:37:00,
2013-03-26 18:52:00,57.1,29.0,30.11,West,271,1.0,9.0,34,0.00,,,0.00,114,weatherlink.com 1.10,2013-03-26 22:52:00,
2013-03-26 19:07:00,55.8,30.0,30.11,SW,226,7.0,8.0,38,0.00,,,0.00,25,weatherlink.com 1.10,2013-03-26 23:07:00,
2013-03-26 19:22:00,54.8,30.0,30.12,WSW,252,3.0,9.0,39,0.00,,,0.00,16,weatherlink.com 1.10,2013-03-26 23:22:00,
2013-03-26 19:37:00,54.2,31.0,30.13,WSW,255,2.0,7.0,41,0.00,,,0.00,7,weatherlink.com 1.10,2013-03-26 23:37:00,
2013-03-26 20:07:00,53.1,32.0,30.14,WSW,253,2.0,5.0,44,0.00,,,0.00,0,weatherlink.com 1.10,2013-03-27 00:07:00,
2013-03-26 20:22:00,52.7,32.0,30.15,WNW,283,2.0,7.0,46,0.00,,,0.00,0,weatherlink.com 1.10,2013-03-27 00:22:00,
2013-03-26 20:38:00,52.3,33.0,30.16,SW,233,6.0,11.0,48,0.00,,,0.00,0,weatherlink.com 1.10,2013-03-27 00:38:00,
2013-03-26 20:53:00,51.9,33.0,30.17,West,268,0.0,6.0,49,0.00,,,0.00,0,weatherlink.com 1.10,2013-03-27 00:53:00,
2013-03-26 21:08:00,51.5,33.0,30.17,WSW,246,1.0,7.0,50,0.00,,,0.00,0,weatherlink.com 1.10,2013-03-27 01:08:00,
2013-03-26 21:23:00,51.2,34.0,30.18,West,259,1.0,6.0,52,0.00,,,0.00,0,weatherlink.com 1.10,2013-03-27 01:23:00,
2013-03-26 21:38:00,50.8,34.0,30.19,West,268,1.0,5.0,53,0.00,,,0.00,0,weatherlink.com 1.10,2013-03-27 01:38:00,
2013-03-26 21:53:00,50.3,34.0,30.20,West,259,2.0,8.0,53,0.00,,,0.00,0,weatherlink.com 1.10,2013-03-27 01:53:00,
2013-03-26 22:08:00,50.0,34.0,30.20,West,278,1.0,10.0,55,0.00,,,0.00,0,weatherlink.com 1.10,2013-03-27 02:08:00,
2013-03-26 22:23:00,49.7,35.0,30.21,West,271,0.0,9.0,57,0.00,,,0.00,0,weatherlink.com 1.10,2013-03-27 02:23:00,
2013-03-26 22:38:00,49.3,35.0,30.21,West,271,0.0,6.0,58,0.00,,,0.00,0,weatherlink.com 1.10,2013-03-27 02:38:00,
2013-03-26 23:08:00,48.9,35.0,30.21,West,265,1.0,6.0,60,0.00,,,0.00,0,weatherlink.com 1.10,2013-03-27 03:08:00,
2013-03-26 23:23:00,48.7,36.0,30.21,WSW,240,0.0,4.0,61,0.00,,,0.00,0,weatherlink.com 1.10,2013-03-27 03:23:00,
2013-03-26 23:38:00,48.6,36.0,30.21,NNW,341,2.0,8.0,61,0.00,,,0.00,0,weatherlink.com 1.10,2013-03-27 03:38:00,
2013-03-26 23:53:00,48.4,36.0,30.21,NNE,12,5.0,7.0,62,0.00,,,0.00,0,weatherlink.com 1.10,2013-03-27 03:53:00,